SCP
0 0 0 0 0 0 0 0 0 0 -0 -0 -0 -0 -0 -0 0 0 0 0 0 -0 -0 0 -0 0 -0 -0 -0 0 0 -0 -0 -0 -0 -0 -0 -0 -0 -0 -0 0 0 -0 -0
0 0 0 0 0 0 0 0 0 0 0 -0 -0 -0 -0 -0 -0 -0 0 0 -0 -0 -0 -0 -0 -0 0 -0 -0 0 -0 -0 -0 0 -0 -0 -0 -0 0 -0 0 0 0 -0 -0
0 0 0 0 0 0 0 0 0 0 0 0 0 -0 -0 -0 0 -0 0 0 0 0 -0 -0 0 -0 -0 -0 0 0 0 -0 -0 0 -0 -0 -0 0 0 0 -0 -0 -0 -0 -0
0 0 -0 -0 0 0 0 0 0 0 0 0 0 0 0 -0 0 0 -0 0 0 -0 0 0 0 -0 -0 0 0 0 0 0 -0 -0 -0 -0 -0 0 0 0 -0 0 -0 -0 -0
0 0 0 -0 -0 -0 0 0 0 0 0 0 0 0 0 0 0 0 0 0 0 -0 0 0 0 0 0 0 -0 -0 -0 -0 -0 -0 -0 0 0 0 0 -0 -0 -0 -0 -0 -0
0 0 0 -0 -0 -0 -0 0 0 0 0 0 0 0 0 0 0 0 0 0 -0 -0 0 0 0 0 0 0 0 -0 -0 -0 -0 -0 -0 0 0 0 -0 -0 -0 -0 -0 -0 -0
0 0 0 -0 -0 -0 -0 -0 -0 0 0 0 0 0 0 0 0 0 0 0 0 0 0 0 0 0 0 -0 -0 -0 -0 -0 -0 -0 0 0 0 0 -0 -0 -0 -0 -0 -0 -0
0 0 0 0 -0 -0 -0 -0 -0 0 0 0 0 0 0 0 0 0 0 0 0 0 0 0 0 0 0 -0 -0 -0 -0 -0 -0 -0 -0 0 -0 -0 -0 -0 -0 -0 -0 -0 -0
0 0 0 0 -0 -0 -0 -0 -0 0 0 0 0 0 0 0 0 0 0 0 0 0 0 0 0 0 0 -0 0 0 -0 0 -0 -0 0 0 0 -0 -0 -0 -0 -0 -0 -0 -0
0 0 0 0 0 -0 -0 -0 0 0 0 0 0 0 0 0 0 0 0 0 0 0 0 0 0 0 0 0 0 0 0 0 0 -0 0 -0 0 0 -0 -0 -0 -0 -0 -0 -0
0 0 0 0 0 0 0 0 0 0 0 0 0 0 0 0 0 0 0 0 0 0 0 0 0 0 0 0 0 0 0 0 0 0 0 -0 0 -0 -0 -0 -0 -0 -0 -0 -0
0 0 0 0 0 0 0 0 0 0 0 0 0 0 0 0 0 0 0 0 0 0 0 0 0 0 0 0 0 0 0 0 0 0 0 0 -0 -0 -0 -0 -0 -0 -0 -0 -0
0 0 0 0 0 0 0 0 0 0 0 0 0 0 0 0 0 0 0 0 0 0 0 0 0 0 0 0 0 0 0 0 0 0 0 0 -0 -0 -0 -0 -0 -0 -0 -0 -0
0 0 0 0 0 0 0 0 0 -0 0 0 0 0 0 0 0 0 0 0 0 0 0 0 0 0 0 0 0 0 0 0 0 0 0 0 0 0 0 0 -0 0 -0 -0 -0
0 0 0 0 0 0 0 0 0 0 0 0 0 0 0 0 0 0 0 0 0 0 0 0 0 0 0 0 0 0 0 0 0 0 0 0 0 0 0 0 0 0 0 -0 0
0 0 0 0 0 0 0 0 0 0 0 0 0 0 0 0 0 0 0 0 0 0 0 0 0 0 0 0 0 0 0 0 0 0 0 0 0 0 0 0 0 0 0 0 0
0 0 0 0 0 0 0 0 0 0 0 0 0 0 0 0 0 0 0 0 0 0 0 0 0 0 0 0 0 0 0 0 0 0 0 0 0 0 0 0 0 0 0 0 0
0 0 0 0 0 0 0 0 0 0 0 0 0 0 0 0 0 0 0 0 0 0 0 0 0 0 0 0 0 0 0 0 0 0 0 0 0 0 0 0 0 0 0 0 0
0 0 0 0 0 0 0 0 0 0 0 0 0 0 0 0 0 0 0 0 0 0 0 0 0 0 0 0 0 0 0 0 0 0 0 0 0 0 0 0 0 0 0 0 0
0 0 0 0 0 0 0 0 0 0 0 0 0 0 0 0 0 0 0 0 0 0 0 0 0 0 0 0 0 0 0 0 0 0 0 0 0 0 0 0 0 0 0 0 0
0 0 0 0 0 0 0 0 0 0 0 0 0 0 0 0 0 0 0 0 0 0 0 0 0 0 0 0 0 0 0 0 0 0 0 0 0 0 0 0 0 0 0 0 0
0 0 0 0 0 0 0 0 0 0 0 0 0 0 0 0 0 0 0 0 0 0 0 0 0 0 0 0 0 0 0 0 0 0 0 0 0 0 0 0 0 0 0 0 0
0 0 0 0 0 0 0 0 0 0 0 0 0 0 0 0 0 0 0 0 0 0 0 0 0 0 0 0 0 0 0 0 0 0 0 0 0 0 0 0 0 0 0 0 0
0 0 0 0 0 0 0 0 0 0 0 0 0 0 0 0 0 0 0 0 0 0 0 0 0 0 0 0 0 0 0 0 0 0 0 0 0 0 0 0 0 0 0 0 0
0 0 0 0 0 0 0 0 0 0 0 0 0 0 0 0 0 0 0 0 0 0 0 0 0 0 0 0 0 0 0 0 0 0 0 0 0 0 0 0 0 0 0 0 0
0 0 0 0 0 0 0 0 0 0 0 0 0 0 0 0 0 0 0 0 0 0 0 0 0 0 0 0 0 0 0 0 0 0 0 0 0 0 0 0 0 0 0 0 0
0 0 0 0 0 0 0 0 0 0 0 0 0 0 0 0 0 0 0 0 0 0 0 0 0 0 0 0 0 0 0 0 0 0 0 0 0 0 0 0 0 0 0 0 0
Wind_Speed_500mb
32 33 32 31 29 26 20 17 14 14 12 4 1 7 14 17 19 17 10 14 17 15 15 20 24 19 12 4 5 3 9 12 21 32 23 28 21 17 15 19 15 13 9 24 36
27 32 34 33 32 29 24 17 13 13 11 7 3 1 12 18 19 12 17 13 19 18 19 24 27 25 8 4 4 10 6 13 12 13 32 40 28 28 21 25 14 13 17 36 33
25 28 32 35 35 33 29 21 14 11 10 7 7 5 2 22 11 10 23 13 13 15 19 19 29 19 8 5 6 7 6 15 11 10 39 35 26 22 24 25 25 32 39 36 31
26 27 31 34 37 36 33 27 16 12 10 7 7 7 4 20 7 10 26 24 22 15 24 33 27 15 7 6 7 14 15 11 16 26 28 31 28 19 30 10 18 29 40 36 31
25 29 31 33 37 39 37 31 21 10 9 7 6 5 5 12 3 15 17 20 30 22 27 30 26 15 11 17 32 28 20 22 25 22 23 19 21 13 23 7 28 38 37 33 29
27 30 31 33 38 40 40 34 21 11 6 5 5 4 5 16 8 11 13 19 25 23 27 24 16 18 25 14 7 25 32 32 21 22 16 13 12 14 14 27 32 35 34 32 29
28 31 32 32 36 43 41 36 19 9 5 4 1 6 6 3 2 4 18 27 25 21 23 19 29 14 29 32 35 46 36 26 18 20 12 11 17 17 30 32 32 33 33 31 27
31 31 31 33 35 40 43 35 16 5 4 6 4 10 5 9 11 11 21 22 23 26 33 29 32 32 17 47 30 21 21 19 20 19 14 13 17 16 35 39 35 32 32 31 31
33 32 30 31 35 39 42 33 9 4 4 7 5 10 13 12 6 16 16 29 27 28 36 27 20 28 42 31 22 16 19 13 22 21 8 20 1 20 37 39 37 37 35 36 33
34 30 28 28 30 37 39 27 4 3 4 6 4 8 9 13 16 21 33 19 21 26 16 5 8 16 24 25 16 20 22 13 21 25 19 21 25 16 37 42 42 42 39 38 38
38 29 26 25 25 33 37 21 5 2 2 2 1 5 7 13 24 27 17 18 14 5 4 4 11 24 39 17 10 20 21 22 22 12 21 26 26 24 37 45 46 46 45 44 43
42 34 24 20 24 26 29 16 17 6 12 7 6 6 12 17 13 21 19 16 15 9 8 9 15 23 16 20 20 21 21 16 10 14 16 15 30 31 38 49 49 47 46 46 43
46 43 30 21 23 17 18 21 17 20 8 7 9 8 9 15 7 13 16 14 9 12 12 13 12 21 23 19 17 13 19 21 4 16 17 15 32 34 35 44 45 50 49 46 47
33 42 37 25 15 10 8 15 16 14 6 9 11 9 10 10 9 9 13 10 4 9 8 2 13 25 18 12 12 13 11 17 19 22 5 10 9 12 15 24 42 45 51 53 51
24 28 25 18 10 5 6 9 10 6 3 3 8 4 11 13 14 6 11 4 14 11 9 7 18 27 24 14 12 9 9 13 13 9 9 18 11 10 9 10 9 27 45 55 57
23 20 18 19 17 13 9 4 2 3 10 7 6 12 19 11 9 10 7 9 10 8 8 6 6 5 4 5 4 22 17 12 7 6 12 0 10 7 9 11 11 13 16 34 55
29 18 21 27 13 13 7 3 5 6 1 8 7 11 17 14 12 14 18 16 16 15 14 5 9 7 7 14 15 13 16 6 8 9 7 5 9 12 9 11 12 17 16 10 33
32 22 18 33 21 14 11 4 7 9 8 2 3 10 14 17 10 11 17 20 8 11 12 18 12 13 2 5 8 23 14 9 9 7 3 6 11 8 9 11 9 15 19 14 12
29 20 11 33 25 15 13 4 13 11 6 11 9 13 14 13 7 15 20 20 19 18 17 13 12 5 3 1 6 11 15 3 1 2 6 8 8 9 8 16 17 23 29 29 13
26 17 7 31 29 18 5 8 8 3 5 7 16 11 15 22 17 19 20 10 14 14 7 11 6 4 6 5 9 5 8 6 2 3 10 8 9 3 13 17 18 24 28 27 23
17 10 5 30 31 14 8 10 12 13 6 8 11 7 10 12 22 16 9 7 10 14 9 14 7 8 7 14 15 8 7 1 2 4 6 9 3 4 12 12 13 21 23 21 20
6 6 4 40 21 13 12 11 5 15 6 9 6 10 15 15 18 18 17 3 11 19 14 6 4 9 3 4 3 4 8 17 7 8 4 5 9 9 7 7 14 25 24 21 20
7 8 9 39 13 19 13 9 3 17 9 4 10 13 8 13 12 19 14 5 11 16 20 16 10 6 8 8 6 10 11 4 3 2 17 10 5 11 9 1 17 19 14 15 17
5 4 9 18 14 15 27 21 14 11 8 11 15 10 11 13 11 11 13 6 8 14 8 13 9 12 11 5 8 7 14 6 7 8 12 21 27 17 11 14 11 12 10 12 15
7 9 6 5 10 20 23 18 29 20 18 14 19 23 21 14 17 10 14 10 10 12 10 8 12 7 6 3 9 8 10 22 17 25 15 22 20 20 16 11 14 10 5 10 16
7 7 10 12 13 25 26 30 32 21 17 9 15 26 24 23 19 18 17 16 12 17 14 9 6 9 10 5 11 17 20 23 27 26 27 32 33 14 10 10 14 15 10 16 21
17 10 7 13 14 18 26 30 15 42 27 33 34 14 18 23 17 5 9 6 8 14 21 13 13 10 6 3 6 15 32 34 23 18 22 20 8 5 3 11 15 14 17 22 27
Wind_Direction_500mb
15 16 19 15 7 2 0 359 355 345 341 335 5 85 147 157 148 152 138 152 175 179 184 189 186 175 161 104 50 178 209 167 154 167 144 158 161 167 168 161 176 190 164 153 159
8 8 10 14 9 1 355 353 348 339 331 306 281 123 161 162 126 159 190 174 182 204 207 174 167 165 150 126 25 293 226 122 121 100 156 171 176 163 169 167 188 174 138 149 154
352 358 2 6 10 2 353 347 339 330 321 297 273 245 226 197 194 190 189 199 212 215 197 184 162 158 140 108 23 21 46 120 111 116 153 163 172 170 179 181 192 178 160 159 160
334 346 353 358 1 4 354 343 332 323 313 299 277 244 278 182 194 203 192 204 239 231 169 156 166 159 128 98 93 114 79 92 117 131 148 164 158 185 186 81 190 170 162 163 166
326 337 340 349 354 356 355 344 327 316 310 298 298 217 198 192 234 219 204 201 206 209 180 176 172 154 120 110 101 98 97 113 129 138 148 153 182 185 191 134 150 156 162 169 171
324 328 334 339 342 349 350 344 327 309 296 278 317 186 202 207 274 237 212 179 180 178 171 177 189 135 103 98 7 129 121 121 136 136 147 201 174 195 167 151 156 162 172 177 179
317 321 330 333 334 338 347 341 324 301 279 223 284 118 108 134 323 259 175 154 169 183 172 163 144 161 126 102 122 126 123 130 146 154 149 194 198 218 161 167 170 179 183 183 186
312 317 324 329 330 329 340 338 323 291 243 214 187 140 133 125 89 105 135 143 146 133 144 128 127 105 122 125 134 138 158 162 163 176 160 221 169 151 172 176 187 191 189 190 193
297 310 322 326 332 327 335 336 319 281 213 197 183 159 155 147 134 140 128 128 125 124 123 117 106 109 137 141 141 197 173 196 165 199 174 227 303 163 183 190 194 198 200 200 199
284 297 318 333 333 330 333 333 300 334 192 177 171 160 174 161 160 141 132 125 125 119 112 124 126 149 167 187 184 181 176 193 181 187 215 216 252 177 195 200 204 205 207 208 207
275 282 308 339 340 340 337 3 350 214 79 171 315 136 120 153 152 163 149 143 147 152 230 138 186 187 176 200 263 177 190 187 189 143 211 233 253 215 205 210 212 214 212 213 212
265 273 289 327 348 344 352 46 42 325 311 246 191 171 172 170 171 178 192 187 203 209 150 203 220 171 137 155 153 169 184 167 144 158 211 250 260 252 210 220 218 219 221 218 213
265 262 271 298 338 343 18 35 10 356 271 272 214 188 174 178 197 169 181 181 221 195 206 266 124 139 157 162 171 192 209 175 195 169 222 275 264 242 229 222 227 228 229 224 216
273 261 263 277 309 347 24 7 2 358 275 165 202 195 182 167 189 187 179 177 132 208 161 181 157 174 188 196 258 195 199 192 160 187 233 207 292 204 182 217 229 232 228 226 218
301 268 247 247 241 306 307 352 1 352 331 104 165 185 179 194 130 163 173 172 178 152 218 137 172 186 213 229 234 39 169 176 177 218 269 184 255 124 166 201 210 227 235 227 219
311 289 221 220 231 240 265 328 85 227 249 170 175 180 173 178 155 140 161 118 114 113 42 97 138 184 226 104 247 140 141 131 164 238 257 169 254 142 100 347 320 321 282 235 220
320 295 219 202 201 199 208 177 183 178 111 168 175 187 198 177 158 190 180 166 186 190 195 163 159 135 186 154 149 203 192 210 221 211 256 137 223 313 7 26 349 345 348 252 216
317 307 233 203 195 201 154 198 200 208 216 86 184 175 200 172 186 176 184 191 188 206 187 203 194 189 121 262 224 203 236 219 260 227 119 176 236 121 51 45 61 43 43 51 186
323 316 252 200 198 189 175 132 202 213 144 177 163 192 183 190 224 190 214 220 199 195 213 206 204 135 64 216 255 173 218 42 164 77 273 236 232 169 136 80 79 60 52 50 55
334 328 252 187 190 172 112 206 259 220 174 194 226 221 203 191 198 202 188 186 191 201 253 174 163 200 129 177 72 265 106 189 178 205 247 226 263 170 145 91 77 50 31 26 30
340 326 269 161 172 188 204 217 230 245 211 225 224 210 235 187 220 202 191 152 205 163 194 173 204 141 200 206 203 158 186 103 160 271 270 288 247 91 128 88 60 22 16 16 20
327 248 234 174 187 199 203 180 239 229 200 241 278 245 218 200 206 214 208 267 171 177 191 155 173 195 186 105 316 267 239 217 213 199 231 294 263 165 110 86 8 356 358 5 13
293 271 243 180 210 209 184 177 247 235 202 245 233 231 204 206 216 219 194 128 178 193 179 174 194 158 184 182 186 222 192 99 77 129 221 238 241 157 151 228 348 337 14 34 40
281 280 245 231 255 262 206 200 197 218 224 289 296 224 188 202 206 205 189 156 177 208 183 169 184 213 236 71 117 178 199 187 180 200 231 236 277 236 201 332 7 18 25 37 48
212 257 290 243 234 236 216 199 199 184 208 196 259 244 215 206 201 205 193 160 169 178 171 204 205 170 170 144 212 224 200 181 200 226 233 260 264 286 328 344 355 356 23 73 70
204 263 331 305 264 201 228 227 208 209 177 180 233 343 255 232 213 204 190 205 184 177 192 182 198 189 175 196 244 260 242 222 227 243 248 266 273 324 92 359 12 14 81 91 93
223 256 328 275 246 227 223 220 250 224 212 230 192 295 306 268 284 299 187 166 174 178 185 181 165 183 215 188 274 273 243 234 225 228 240 253 299 99 318 48 35 57 89 103 107
Wind_Speed_850mb
32 33 32 31 29 26 20 17 14 14 12 4 1 7 14 17 19 17 10 14 17 15 15 20 24 19 12 4 5 3 9 12 21 32 23 28 21 17 15 19 15 13 9 24 36
27 32 34 33 32 29 24 17 13 13 11 7 3 1 12 18 19 12 17 13 19 18 19 24 27 25 8 4 4 10 6 13 12 13 32 40 28 28 21 25 14 13 17 36 33
25 28 32 35 35 33 29 21 14 11 10 7 7 5 2 22 11 10 23 13 13 15 19 19 29 19 8 5 6 7 6 15 11 10 39 35 26 22 24 25 25 32 39 36 31
26 27 31 34 37 36 33 27 16 12 10 7 7 7 4 20 7 10 26 24 22 15 24 33 27 15 7 6 7 14 15 11 16 26 28 31 28 19 30 10 18 29 40 36 31
25 29 31 33 37 39 37 31 21 10 9 7 6 5 5 12 3 15 17 20 30 22 27 30 26 15 11 17 32 28 20 22 25 22 23 19 21 13 23 7 28 38 37 33 29
27 30 31 33 38 40 40 34 21 11 6 5 5 4 5 16 8 11 13 19 25 23 27 24 16 18 25 14 7 25 32 32 21 22 16 13 12 14 14 27 32 35 34 32 29
28 31 32 32 36 43 41 36 19 9 5 4 1 6 6 3 2 4 18 27 25 21 23 19 29 14 29 32 35 46 36 26 18 20 12 11 17 17 30 32 32 33 33 31 27
31 31 31 33 35 40 43 35 16 5 4 6 4 10 5 9 11 11 21 22 23 26 33 29 32 32 17 47 30 21 21 19 20 19 14 13 17 16 35 39 35 32 32 31 31
33 32 30 31 35 39 42 33 9 4 4 7 5 10 13 12 6 16 16 29 27 28 36 27 20 28 42 31 22 16 19 13 22 21 8 20 1 20 37 39 37 37 35 36 33
34 30 28 28 30 37 39 27 4 3 4 6 4 8 9 13 16 21 33 19 21 26 16 5 8 16 24 25 16 20 22 13 21 25 19 21 25 16 37 42 42 42 39 38 38
38 29 26 25 25 33 37 21 5 2 2 2 1 5 7 13 24 27 17 18 14 5 4 4 11 24 39 17 10 20 21 22 22 12 21 26 26 24 37 45 46 46 45 44 43
42 34 24 20 24 26 29 16 17 6 12 7 6 6 12 17 13 21 19 16 15 9 8 9 15 23 16 20 20 21 21 16 10 14 16 15 30 31 38 49 49 47 46 46 43
46 43 30 21 23 17 18 21 17 20 8 7 9 8 9 15 7 13 16 14 9 12 12 13 12 21 23 19 17 13 19 21 4 16 17 15 32 34 35 44 45 50 49 46 47
33 42 37 25 15 10 8 15 16 14 6 9 11 9 10 10 9 9 13 10 4 9 8 2 13 25 18 12 12 13 11 17 19 22 5 10 9 12 15 24 42 45 51 53 51
24 28 25 18 10 5 6 9 10 6 3 3 8 4 11 13 14 6 11 4 14 11 9 7 18 27 24 14 12 9 9 13 13 9 9 18 11 10 9 10 9 27 45 55 57
23 20 18 19 17 13 9 4 2 3 10 7 6 12 19 11 9 10 7 9 10 8 8 6 6 5 4 5 4 22 17 12 7 6 12 0 10 7 9 11 11 13 16 34 55
29 18 21 27 13 13 7 3 5 6 1 8 7 11 17 14 12 14 18 16 16 15 14 5 9 7 7 14 15 13 16 6 8 9 7 5 9 12 9 11 12 17 16 10 33
32 22 18 33 21 14 11 4 7 9 8 2 3 10 14 17 10 11 17 20 8 11 12 18 12 13 2 5 8 23 14 9 9 7 3 6 11 8 9 11 9 15 19 14 12
29 20 11 33 25 15 13 4 13 11 6 11 9 13 14 13 7 15 20 20 19 18 17 13 12 5 3 1 6 11 15 3 1 2 6 8 8 9 8 16 17 23 29 29 13
26 17 7 31 29 18 5 8 8 3 5 7 16 11 15 22 17 19 20 10 14 14 7 11 6 4 6 5 9 5 8 6 2 3 10 8 9 3 13 17 18 24 28 27 23
17 10 5 30 31 14 8 10 12 13 6 8 11 7 10 12 22 16 9 7 10 14 9 14 7 8 7 14 15 8 7 1 2 4 6 9 3 4 12 12 13 21 23 21 20
6 6 4 40 21 13 12 11 5 15 6 9 6 10 15 15 18 18 17 3 11 19 14 6 4 9 3 4 3 4 8 17 7 8 4 5 9 9 7 7 14 25 24 21 20
7 8 9 39 13 19 13 9 3 17 9 4 10 13 8 13 12 19 14 5 11 16 20 16 10 6 8 8 6 10 11 4 3 2 17 10 5 11 9 1 17 19 14 15 17
5 4 9 18 14 15 27 21 14 11 8 11 15 10 11 13 11 11 13 6 8 14 8 13 9 12 11 5 8 7 14 6 7 8 12 21 27 17 11 14 11 12 10 12 15
7 9 6 5 10 20 23 18 29 20 18 14 19 23 21 14 17 10 14 10 10 12 10 8 12 7 6 3 9 8 10 22 17 25 15 22 20 20 16 11 14 10 5 10 16
7 7 10 12 13 25 26 30 32 21 17 9 15 26 24 23 19 18 17 16 12 17 14 9 6 9 10 5 11 17 20 23 27 26 27 32 33 14 10 10 14 15 10 16 21
17 10 7 13 14 18 26 30 15 42 27 33 34 14 18 23 17 5 9 6 8 14 21 13 13 10 6 3 6 15 32 34 23 18 22 20 8 5 3 11 15 14 17 22 27
Wind_Direction_850mb
15 16 19 15 7 2 0 359 355 345 341 335 5 85 147 157 148 152 138 152 175 179 184 189 186 175 161 104 50 178 209 167 154 167 144 158 161 167 168 161 176 190 164 153 159
8 8 10 14 9 1 355 353 348 339 331 306 281 123 161 162 126 159 190 174 182 204 207 174 167 165 150 126 25 293 226 122 121 100 156 171 176 163 169 167 188 174 138 149 154
352 358 2 6 10 2 353 347 339 330 321 297 273 245 226 197 194 190 189 199 212 215 197 184 162 158 140 108 23 21 46 120 111 116 153 163 172 170 179 181 192 178 160 159 160
334 346 353 358 1 4 354 343 332 323 313 299 277 244 278 182 194 203 192 204 239 231 169 156 166 159 128 98 93 114 79 92 117 131 148 164 158 185 186 81 190 170 162 163 166
326 337 340 349 354 356 355 344 327 316 310 298 298 217 198 192 234 219 204 201 206 209 180 176 172 154 120 110 101 98 97 113 129 138 148 153 182 185 191 134 150 156 162 169 171
324 328 334 339 342 349 350 344 327 309 296 278 317 186 202 207 274 237 212 179 180 178 171 177 189 135 103 98 7 129 121 121 136 136 147 201 174 195 167 151 156 162 172 177 179
317 321 330 333 334 338 347 341 324 301 279 223 284 118 108 134 323 259 175 154 169 183 172 163 144 161 126 102 122 126 123 130 146 154 149 194 198 218 161 167 170 179 183 183 186
312 317 324 329 330 329 340 338 323 291 243 214 187 140 133 125 89 105 135 143 146 133 144 128 127 105 122 125 134 138 158 162 163 176 160 221 169 151 172 176 187 191 189 190 193
297 310 322 326 332 327 335 336 319 281 213 197 183 159 155 147 134 140 128 128 125 124 123 117 106 109 137 141 141 197 173 196 165 199 174 227 303 163 183 190 194 198 200 200 199
284 297 318 333 333 330 333 333 300 334 192 177 171 160 174 161 160 141 132 125 125 119 112 124 126 149 167 187 184 181 176 193 181 187 215 216 252 177 195 200 204 205 207 208 207
275 282 308 339 340 340 337 3 350 214 79 171 315 136 120 153 152 163 149 143 147 152 230 138 186 187 176 200 263 177 190 187 189 143 211 233 253 215 205 210 212 214 212 213 212
265 273 289 327 348 344 352 46 42 325 311 246 191 171 172 170 171 178 192 187 203 209 150 203 220 171 137 155 153 169 184 167 144 158 211 250 260 252 210 220 218 219 221 218 213
265 262 271 298 338 343 18 35 10 356 271 272 214 188 174 178 197 169 181 181 221 195 206 266 124 139 157 162 171 192 209 175 195 169 222 275 264 242 229 222 227 228 229 224 216
273 261 263 277 309 347 24 7 2 358 275 165 202 195 182 167 189 187 179 177 132 208 161 181 157 174 188 196 258 195 199 192 160 187 233 207 292 204 182 217 229 232 228 226 218
301 268 247 247 241 306 307 352 1 352 331 104 165 185 179 194 130 163 173 172 178 152 218 137 172 186 213 229 234 39 169 176 177 218 269 184 255 124 166 201 210 227 235 227 219
311 289 221 220 231 240 265 328 85 227 249 170 175 180 173 178 155 140 161 118 114 113 42 97 138 184 226 104 247 140 141 131 164 238 257 169 254 142 100 347 320 321 282 235 220
320 295 219 202 201 199 208 177 183 178 111 168 175 187 198 177 158 190 180 166 186 190 195 163 159 135 186 154 149 203 192 210 221 211 256 137 223 313 7 26 349 345 348 252 216
317 307 233 203 195 201 154 198 200 208 216 86 184 175 200 172 186 176 184 191 188 206 187 203 194 189 121 262 224 203 236 219 260 227 119 176 236 121 51 45 61 43 43 51 186
323 316 252 200 198 189 175 132 202 213 144 177 163 192 183 190 224 190 214 220 199 195 213 206 204 135 64 216 255 173 218 42 164 77 273 236 232 169 136 80 79 60 52 50 55
334 328 252 187 190 172 112 206 259 220 174 194 226 221 203 191 198 202 188 186 191 201 253 174 163 200 129 177 72 265 106 189 178 205 247 226 263 170 145 91 77 50 31 26 30
340 326 269 161 172 188 204 217 230 245 211 225 224 210 235 187 220 202 191 152 205 163 194 173 204 141 200 206 203 158 186 103 160 271 270 288 247 91 128 88 60 22 16 16 20
327 248 234 174 187 199 203 180 239 229 200 241 278 245 218 200 206 214 208 267 171 177 191 155 173 195 186 105 316 267 239 217 213 199 231 294 263 165 110 86 8 356 358 5 13
293 271 243 180 210 209 184 177 247 235 202 245 233 231 204 206 216 219 194 128 178 193 179 174 194 158 184 182 186 222 192 99 77 129 221 238 241 157 151 228 348 337 14 34 40
281 280 245 231 255 262 206 200 197 218 224 289 296 224 188 202 206 205 189 156 177 208 183 169 184 213 236 71 117 178 199 187 180 200 231 236 277 236 201 332 7 18 25 37 48
212 257 290 243 234 236 216 199 199 184 208 196 259 244 215 206 201 205 193 160 169 178 171 204 205 170 170 144 212 224 200 181 200 226 233 260 264 286 328 344 355 356 23 73 70
204 263 331 305 264 201 228 227 208 209 177 180 233 343 255 232 213 204 190 205 184 177 192 182 198 189 175 196 244 260 242 222 227 243 248 266 273 324 92 359 12 14 81 91 93
223 256 328 275 246 227 223 220 250 224 212 230 192 295 306 268 284 299 187 166 174 178 185 181 165 183 215 188 274 273 243 234 225 228 240 253 299 99 318 48 35 57 89 103 107